| time (UTC) | temp F | wind direction | speed knots | gust knots | rain 1hr in | rain 24hr in | rain mn in | humidity % | barometer mb |
| 20260508140703 | 72 | 252 | 5.2 | 10.4 | 0.00 | 0.00 | 0.00 | 40 | 1010.3 |
| 20260508140203 | 72 | 287 | 0.9 | 7.8 | 0.00 | 0.00 | 0.00 | 41 | 1010.4 |
| 20260508133703 | 71 | 218 | 2.6 | 12.2 | 0.00 | 0.00 | 0.00 | 41 | 1010.8 |
| 20260508133203 | 71 | 259 | 8.7 | 13.0 | 0.00 | 0.00 | 0.00 | 41 | 1010.8 |
| 20260508130704 | 70 | 166 | 3.5 | 17.4 | 0.00 | 0.00 | 0.00 | 42 | 1010.9 |
| 20260508130204 | 70 | 239 | 1.7 | 14.8 | 0.00 | 0.00 | 0.00 | 43 | 1011.0 |
| 20260508123703 | 70 | 175 | 4.3 | 10.4 | 0.00 | 0.00 | 0.00 | 43 | 1011.3 |
| 20260508123204 | 70 | 256 | 4.3 | 12.2 | 0.00 | 0.00 | 0.00 | 43 | 1011.2 |
| 20260508120703 | 69 | 226 | 0.9 | 7.8 | 0.00 | 0.00 | 0.00 | 46 | 1011.6 |
| 20260508120204 | 69 | 253 | 6.1 | 12.2 | 0.00 | 0.00 | 0.00 | 46 | 1011.6 |
| 20260508113703 | 68 | 155 | 2.6 | 7.0 | 0.00 | 0.00 | 0.00 | 45 | 1011.6 |
| 20260508113204 | 69 | 234 | 1.7 | 10.4 | 0.00 | 0.00 | 0.00 | 46 | 1011.7 |
| 20260508110703 | 69 | 205 | 3.5 | 8.7 | 0.00 | 0.00 | 0.00 | 45 | 1011.8 |
| 20260508110203 | 69 | 213 | 1.7 | 7.8 | 0.00 | 0.00 | 0.00 | 45 | 1011.9 |
| 20260508103704 | 67 | 231 | 3.5 | 7.8 | 0.00 | 0.00 | 0.00 | 47 | 1012.0 |
| 20260508103203 | 67 | 209 | 0.9 | 10.4 | 0.00 | 0.00 | 0.00 | 48 | 1011.9 |
| 20260508100203 | 66 | 239 | 3.5 | 10.4 | 0.00 | 0.00 | 0.00 | 48 | 1012.2 |
| 20260508093703 | 65 | 260 | 5.2 | 10.4 | 0.00 | 0.00 | 0.00 | 47 | 1012.4 |
| 20260508093203 | 65 | 232 | 2.6 | 11.3 | 0.00 | 0.00 | 0.00 | 55 | 1012.4 |
| 20260508090204 | 64 | 238 | 4.3 | 10.4 | 0.00 | 0.00 | 0.00 | 58 | 1012.5 |
| 20260508083704 | 63 | 251 | 4.3 | 8.7 | 0.00 | 0.00 | 0.00 | 62 | 1012.4 |
| 20260508083204 | 63 | 243 | 4.3 | 11.3 | 0.00 | 0.00 | 0.00 | 64 | 1012.3 |
| 20260508080203 | 62 | 237 | 1.7 | 7.8 | 0.00 | 0.00 | 0.00 | 68 | 1012.2 |
| 20260508073704 | 60 | 233 | 0.9 | 2.6 | 0.00 | 0.00 | 0.00 | 72 | 1012.1 |
| 20260508073203 | 60 | 253 | 0.0 | 2.6 | 0.00 | 0.00 | 0.00 | 72 | 1011.9 |
| 20260508070704 | 59 | 217 | 0.0 | 0.9 | 0.00 | 0.00 | 0.00 | 73 | 1011.8 |
| 20260508070204 | 59 | 217 | 0.0 | 2.6 | 0.00 | 0.00 | 0.00 | 73 | 1011.8 |
| 20260508063704 | 58 | 219 | 0.0 | 1.7 | 0.00 | 0.00 | 0.00 | 76 | 1011.7 |
| 20260508060703 | 57 | 228 | 0.0 | 0.9 | 0.00 | 0.00 | 0.00 | 77 | 1011.6 |
| 20260508060204 | 57 | 229 | 0.0 | 4.3 | 0.00 | 0.00 | 0.00 | 77 | 1011.6 |
| 20260508053703 | 56 | 228 | 0.9 | 2.6 | 0.00 | 0.00 | 0.00 | 78 | 1011.4 |
| 20260508053204 | 56 | 228 | 0.9 | 2.6 | 0.00 | 0.00 | 0.00 | 78 | 1011.3 |
| 20260508050203 | 57 | 228 | 0.0 | 5.2 | 0.00 | 0.00 | 0.00 | 76 | 1010.8 |
| 20260508043704 | 58 | 216 | 1.7 | 2.6 | 0.00 | 0.00 | 0.00 | 75 | 1010.6 |
| 20260508043204 | 58 | 216 | 0.0 | 5.2 | 0.00 | 0.00 | 0.00 | 75 | 1010.6 |
| 20260508040204 | 58 | 207 | 1.7 | 6.1 | 0.00 | 0.00 | 0.00 | 75 | 1010.7 |
| 20260508033203 | 58 | 166 | 0.9 | 5.2 | 0.00 | 0.00 | 0.00 | 75 | 1010.6 |
| 20260508030704 | 58 | 193 | 1.7 | 7.0 | 0.00 | 0.00 | 0.00 | 74 | 1010.8 |
| 20260508030203 | 58 | 188 | 2.6 | 6.1 | 0.00 | 0.00 | 0.00 | 74 | 1010.9 |
| 20260508023204 | 58 | 184 | 2.6 | 7.8 | 0.00 | 0.00 | 0.00 | 74 | 1010.9 |
| 20260508020704 | 58 | 160 | 0.9 | 5.2 | 0.00 | 0.00 | 0.00 | 74 | 1010.9 |
| 20260508020203 | 58 | 186 | 0.9 | 6.1 | 0.00 | 0.00 | 0.00 | 74 | 1011.0 |
| 20260508013704 | 59 | 185 | 2.6 | 6.1 | 0.00 | 0.00 | 0.00 | 74 | 1011.2 |
| 20260508013204 | 59 | 200 | 1.7 | 5.2 | 0.00 | 0.00 | 0.00 | 74 | 1011.2 |
| 20260508010204 | 59 | 181 | 1.7 | 6.1 | 0.00 | 0.00 | 0.00 | 74 | 1011.2 |
| 20260508003704 | 59 | 227 | 0.9 | 2.6 | 0.00 | 0.00 | 0.00 | 74 | 1011.5 |
| 20260508000704 | 60 | 211 | 1.7 | 5.2 | 0.00 | 0.00 | 0.00 | 72 | 1011.4 |
| 20260508000205 | 60 | 224 | 0.9 | 7.0 | 0.00 | 0.00 | 0.00 | 72 | 1011.4 |
| 20260507233704 | 60 | 217 | 0.9 | 4.3 | 0.00 | 0.00 | 0.00 | 71 | 1011.6 |
| 20260507233204 | 60 | 187 | 1.7 | 6.1 | 0.00 | 0.00 | 0.00 | 71 | 1011.5 |
| 20260507230704 | 60 | 238 | 0.9 | 2.6 | 0.00 | 0.00 | 0.00 | 71 | 1011.7 |
| 20260507230203 | 60 | 221 | 0.0 | 4.3 | 0.00 | 0.00 | 0.00 | 71 | 1011.8 |
| 20260507223704 | 60 | 216 | 0.9 | 2.6 | 0.00 | 0.00 | 0.00 | 70 | 1012.0 |
| 20260507223204 | 60 | 176 | 0.9 | 7.8 | 0.00 | 0.00 | 0.00 | 70 | 1012.1 |
| 20260507220204 | 61 | 239 | 0.0 | 2.6 | 0.00 | 0.00 | 0.00 | 66 | 1012.1 |
| 20260507213704 | 61 | 244 | 0.0 | 4.3 | 0.00 | 0.00 | 0.00 | 64 | 1012.0 |
| 20260507213204 | 61 | 244 | 0.0 | 5.2 | 0.00 | 0.00 | 0.00 | 63 | 1012.1 |
| 20260507210704 | 61 | 260 | 1.7 | 5.2 | 0.00 | 0.00 | 0.00 | 62 | 1011.9 |
| 20260507203704 | 61 | 296 | 1.7 | 7.0 | 0.00 | 0.00 | 0.00 | 61 | 1011.5 |
| 20260507203204 | 62 | 281 | 0.0 | 6.1 | 0.00 | 0.00 | 0.00 | 61 | 1011.5 |
| 20260507200704 | 62 | 261 | 3.5 | 7.8 | 0.00 | 0.00 | 0.00 | 60 | 1011.6 |
| 20260507200204 | 62 | 262 | 4.3 | 10.4 | 0.00 | 0.00 | 0.00 | 61 | 1011.6 |
| 20260507193204 | 63 | 264 | 2.6 | 10.4 | 0.00 | 0.00 | 0.00 | 60 | 1011.4 |
| 20260507190705 | 64 | 249 | 4.3 | 8.7 | 0.00 | 0.00 | 0.00 | 57 | 1011.1 |
| 20260507190204 | 64 | 258 | 6.1 | 14.8 | 0.00 | 0.00 | 0.00 | 57 | 1011.0 |
| 20260507183704 | 66 | 248 | 6.1 | 13.0 | 0.00 | 0.00 | 0.00 | 53 | 1010.7 |
| 20260507183204 | 66 | 260 | 4.3 | 14.8 | 0.00 | 0.00 | 0.00 | 52 | 1010.6 |
| 20260507180704 | 67 | 253 | 7.8 | 13.0 | 0.00 | 0.00 | 0.00 | 50 | 1010.2 |
| 20260507180204 | 68 | 252 | 7.8 | 15.6 | 0.00 | 0.00 | 0.00 | 49 | 1010.2 |
| 20260507173704 | 69 | 258 | 7.8 | 14.8 | 0.00 | 0.00 | 0.00 | 48 | 1009.9 |
| 20260507173204 | 69 | 249 | 4.3 | 15.6 | 0.00 | 0.00 | 0.00 | 49 | 1009.9 |
| 20260507170704 | 70 | 242 | 7.0 | 11.3 | 0.00 | 0.00 | 0.00 | 45 | 1009.7 |
| 20260507170204 | 70 | 263 | 7.0 | 13.0 | 0.00 | 0.00 | 0.00 | 45 | 1009.6 |
| 20260507163704 | 71 | 268 | 4.3 | 13.0 | 0.00 | 0.00 | 0.00 | 41 | 1009.4 |
| 20260507160704 | 72 | 234 | 5.2 | 17.4 | 0.00 | 0.00 | 0.00 | 43 | 1009.3 |
| 20260507160205 | 73 | 247 | 4.3 | 13.9 | 0.00 | 0.00 | 0.00 | 42 | 1009.3 |
| 20260507153204 | 72 | 238 | 2.6 | 14.8 | 0.00 | 0.00 | 0.00 | 38 | 1009.3 |
| 20260507150704 | 72 | 230 | 2.6 | 11.3 | 0.00 | 0.00 | 0.00 | 41 | 1009.4 |
| 20260507150204 | 72 | 243 | 2.6 | 13.0 | 0.00 | 0.00 | 0.00 | 37 | 1009.4 |
| 20260507143704 | 72 | 236 | 2.6 | 11.3 | 0.00 | 0.00 | 0.00 | 41 | 1009.6 |